Wind_Speed
6 5 6 6 6 6 6 6 6 6 6 6 6 6 5 5 5 5 5 5 4 3 2 2 2 3 3 3 3 3 3 3 3 4 4 4 4 4 5 5 5 5 4
5 5 5 5 6 6 6 6 6 5 6 7 7 6 5 5 5 4 4 3 3 3 3 2 3 2 3 3 2 3 3 3 3 4 4 5 5 5 6 7 7 6 5
5 5 5 5 5 5 6 6 5 5 6 6 6 6 5 5 5 4 4 3 3 3 3 3 3 3 2 3 2 3 4 4 4 4 4 4 5 6 7 7 7 6 6
5 5 5 4 4 5 5 5 5 5 6 6 6 5 5 5 5 5 4 3 2 3 3 3 3 3 3 3 3 3 4 5 5 5 5 5 5 5 5 6 6 6 5
5 5 4 4 4 5 5 5 5 5 5 7 6 6 6 5 5 5 4 3 3 2 2 3 3 3 3 3 3 3 4 4 5 5 5 5 5 5 5 6 6 5 5
6 6 5 5 5 5 5 5 5 5 6 7 7 6 5 5 5 5 4 3 3 3 2 2 2 2 2 3 3 3 4 4 4 5 5 5 5 5 5 5 5 5 5
7 6 6 6 6 6 5 5 5 6 6 6 6 6 6 6 5 5 4 3 3 3 3 3 3 2 2 2 2 2 3 2 3 4 5 5 5 5 5 5 5 5 5
7 7 7 6 6 6 5 5 5 5 6 5 5 5 5 5 5 4 4 3 2 2 3 3 3 3 2 2 1 2 2 1 2 4 3 4 4 5 6 5 5 5 6
8 8 8 8 6 5 5 4 4 5 5 5 6 6 5 5 4 4 3 3 2 2 2 2 2 2 2 2 2 2 3 2 3 4 4 3 4 5 5 5 5 5 5
8 8 8 7 7 6 5 5 5 5 6 6 6 6 5 5 5 4 3 3 2 1 1 1 1 2 2 2 2 2 3 3 4 3 4 4 4 4 5 5 6 6 7
8 7 7 7 7 6 6 6 6 6 6 7 6 6 5 5 4 3 2 2 2 1 1 0 1 1 2 2 3 3 3 3 3 4 4 5 5 5 5 5 6 6 7
7 7 7 6 6 6 6 6 7 6 7 7 6 5 5 5 4 3 2 2 1 2 1 0 1 1 1 2 2 4 4 4 4 5 5 5 5 5 5 5 6 6 6
8 7 7 7 7 7 7 7 7 8 8 7 6 5 4 4 3 3 2 1 1 2 1 0 1 1 1 2 2 3 4 4 5 5 6 6 5 5 5 5 6 6 7
9 9 8 7 8 7 8 8 8 8 7 6 5 4 4 3 2 2 2 1 2 1 1 0 1 1 1 2 2 3 3 3 5 5 5 6 6 6 6 7 7 7 8
9 8 8 8 8 7 7 7 7 7 6 5 4 3 2 2 2 2 2 2 2 2 1 1 2 2 1 1 2 3 3 3 4 5 6 6 6 7 7 8 8 8 8
9 8 8 8 8 7 7 6 6 5 5 4 4 3 3 2 2 2 2 2 2 2 2 2 3 3 3 3 3 3 4 4 5 5 5 6 7 8 8 9 9 9 9
8 8 8 8 7 6 6 6 5 5 4 3 3 3 3 2 1 1 2 2 2 2 2 3 3 4 4 4 4 4 5 5 6 6 6 7 8 9 9 9 10 10 10
7 7 7 7 7 5 5 4 4 4 4 3 2 2 2 1 1 1 1 2 3 3 3 3 4 5 5 6 6 6 6 6 7 7 8 9 10 10 10 10 11 11 12
7 7 6 6 6 5 4 4 4 4 4 4 3 2 1 1 1 2 2 3 4 4 4 4 5 5 6 7 7 7 7 7 8 9 9 10 10 10 10 10 10 11 12
6 6 5 5 5 5 4 4 4 4 3 3 2 2 2 2 2 2 2 3 4 5 5 5 5 5 6 7 8 8 8 9 9 10 10 10 10 10 11 11 11 11 12
5 5 5 3 4 4 3 3 3 3 2 2 2 2 3 3 3 3 4 3 4 5 6 6 6 6 7 8 9 9 9 9 10 11 11 11 11 11 11 11 11 12 12
5 4 4 3 3 3 3 3 3 3 2 2 2 2 3 3 3 4 4 4 5 5 6 7 7 7 8 9 9 9 10 10 11 11 11 11 12 12 12 12 12 12 12
4 4 4 3 4 3 3 3 4 4 3 3 3 3 4 4 4 4 5 5 6 6 7 7 7 8 8 9 9 10 10 10 11 11 11 11 11 12 12 12 12 12 12
4 4 4 4 4 4 4 4 4 5 5 5 5 5 4 5 5 5 5 5 6 7 7 8 9 9 9 9 10 11 11 11 11 11 11 11 11 11 11 11 11 11 11
4 4 4 4 5 5 5 5 6 6 6 6 6 6 6 6 6 7 7 7 7 8 8 9 10 10 10 10 10 11 11 11 11 11 11 11 11 11 10 10 10 10 10
5 5 5 5 5 6 6 7 7 8 8 8 7 8 8 8 8 8 9 9 9 9 9 10 10 11 10 10 10 11 11 11 10 11 11 11 11 10 10 10 10 10 11
Wind_Direction
77 79 76 76 81 91 112 120 120 120 125 132 130 128 132 138 138 135 132 149 163 171 194 203 198 188 190 209 219 221 210 216 232 238 248 246 240 243 243 238 238 239 243
74 79 76 75 83 94 108 117 124 130 134 137 130 128 131 136 137 137 133 145 166 178 186 200 206 200 210 222 222 223 227 225 233 232 237 243 246 243 245 244 245 243 243
81 85 81 84 89 97 106 114 124 135 140 146 138 136 135 133 137 134 135 140 153 166 169 185 197 205 215 226 226 225 221 225 229 232 238 241 246 246 251 253 249 244 244
91 90 91 94 96 100 108 117 124 132 137 141 141 141 138 136 137 132 127 134 143 158 170 181 189 203 207 220 230 233 235 236 237 238 241 238 243 247 254 255 252 249 247
84 86 92 100 104 108 113 114 113 122 131 136 136 138 137 136 138 135 124 118 128 147 159 169 177 204 222 227 234 247 254 248 243 238 236 238 243 250 257 254 255 252 249
76 76 77 92 108 113 112 111 111 122 136 136 133 132 132 134 138 137 132 138 145 152 167 171 174 197 219 226 246 258 261 262 250 238 232 237 244 250 254 256 254 250 249
75 75 79 88 105 113 115 119 125 129 135 137 138 136 139 143 145 140 144 148 161 176 186 185 183 192 205 229 245 259 263 255 233 226 229 235 244 252 255 255 251 245 246
76 79 86 89 96 105 115 125 130 134 135 137 143 142 140 148 150 144 150 154 167 166 180 189 207 210 222 234 228 222 216 193 205 203 216 233 241 247 246 238 231 236 249
75 79 86 91 94 95 102 116 132 140 143 138 137 138 140 143 148 150 156 165 164 161 184 187 206 212 212 231 221 211 198 204 202 209 229 238 240 241 237 231 232 244 255
72 77 80 85 89 94 102 107 111 126 135 135 139 141 144 151 158 162 162 164 160 150 159 153 187 230 232 238 227 224 224 209 213 234 242 245 236 249 260 253 254 260 265
74 76 79 81 83 88 95 103 107 116 127 134 138 145 148 153 163 163 161 173 179 162 128 149 273 240 223 234 228 230 240 233 236 238 246 251 255 270 271 268 263 266 268
71 79 84 84 86 87 93 100 106 111 117 124 131 143 145 148 156 161 157 157 165 164 166 188 316 209 196 227 228 239 246 250 249 250 253 263 269 267 267 271 266 264 269
59 67 78 84 94 95 98 104 110 114 117 121 125 129 137 148 157 172 161 160 167 161 190 272 320 291 188 214 231 253 253 261 262 255 256 266 270 276 282 275 267 266 271
52 58 68 73 83 89 97 102 107 111 110 112 116 120 135 145 161 170 169 184 178 179 186 297 357 320 203 211 228 262 265 259 262 256 258 261 276 286 286 279 274 273 271
51 53 61 71 78 82 88 94 100 101 100 102 101 108 128 157 184 196 191 197 211 221 247 280 310 307 267 245 252 272 291 271 267 266 271 273 279 284 281 278 275 276 274
52 55 60 66 74 80 88 90 99 100 98 96 87 89 104 141 183 202 226 235 235 266 275 286 293 292 289 281 285 281 269 282 280 280 279 279 281 286 285 278 271 272 273
53 57 61 64 71 77 87 89 93 97 93 86 86 82 92 102 133 215 246 258 262 280 284 287 297 288 283 282 286 289 289 292 293 286 281 283 286 287 286 282 278 276 275
52 56 62 64 72 73 76 86 91 92 90 87 84 72 74 66 35 326 298 278 280 282 285 289 290 285 283 284 282 278 283 290 295 298 293 289 288 288 289 286 284 281 281
49 53 60 66 67 71 78 81 86 91 84 79 68 59 47 17 340 325 301 285 284 282 284 291 289 288 284 285 283 281 280 282 289 292 293 294 293 295 292 291 290 288 287
44 48 56 63 66 68 69 66 67 74 78 66 49 37 28 4 340 331 318 301 286 285 283 285 283 285 280 282 285 284 280 277 280 284 289 293 293 294 290 290 289 290 290
34 40 52 60 57 51 51 56 52 46 32 35 24 355 352 350 343 336 336 319 298 293 285 281 280 280 279 283 286 286 281 279 283 286 291 293 292 292 289 290 289 286 286
22 21 32 47 38 29 31 31 17 4 357 355 353 347 342 340 340 331 330 327 314 301 287 286 282 281 283 285 288 289 290 285 286 290 292 291 290 290 290 291 290 288 289
3 3 6 13 11 13 11 5 349 340 335 330 328 323 321 317 318 328 322 316 314 307 299 292 287 290 289 288 287 290 289 292 294 296 296 294 293 294 291 292 292 291 290
341 343 342 344 343 339 341 340 336 331 322 316 313 312 311 310 310 316 319 313 312 307 298 290 289 290 289 288 289 290 290 291 292 292 296 299 297 294 291 293 294 294 293
316 320 321 324 323 320 319 319 322 323 318 313 309 304 299 303 309 310 312 315 312 306 297 290 289 289 286 283 285 288 289 290 291 294 301 305 302 299 298 297 297 294 295
297 297 296 300 307 309 308 308 309 309 308 307 305 304 300 299 302 306 308 309 309 308 304 296 288 285 284 283 283 288 290 293 293 296 301 303 302 302 301 300 296 293 294
Height
5869 5869 5869 5869 5869 5868 5869 5871 5872 5873 5874 5875 5876 5877 5878 5879 5880 5881 5882 5883 5884 5885 5885 5886 5887 5887 5888 5888 5889 5889 5890 5890 5891 5891 5892 5892 5893 5893 5894 5894 5894 5895 5895
5870 5870 5870 5870 5870 5870 5870 5871 5872 5873 5874 5875 5877 5878 5879 5880 5880 5881 5882 5883 5884 5884 5885 5886 5886 5887 5888 5888 5888 5889 5889 5889 5890 5891 5891 5891 5892 5892 5893 5893 5894 5894 5894
5871 5871 5871 5871 5871 5871 5871 5872 5873 5874 5875 5876 5877 5878 5879 5880 5880 5881 5882 5883 5883 5884 5885 5885 5886 5887 5887 5888 5888 5888 5888 5888 5888 5889 5890 5891 5891 5892 5892 5892 5893 5893 5893
5871 5871 5871 5871 5871 5871 5872 5873 5874 5875 5875 5876 5877 5878 5879 5880 5880 5882 5882 5883 5883 5884 5884 5885 5885 5886 5886 5887 5887 5887 5887 5887 5887 5888 5888 5889 5890 5891 5891 5891 5892 5892 5892
5872 5872 5872 5871 5871 5872 5873 5873 5874 5875 5875 5876 5877 5878 5879 5880 5881 5881 5883 5883 5884 5884 5884 5884 5885 5885 5886 5886 5886 5885 5885 5884 5884 5886 5887 5888 5889 5890 5890 5891 5891 5891 5891
5873 5872 5871 5870 5871 5872 5873 5874 5874 5875 5876 5876 5877 5878 5879 5880 5881 5882 5883 5883 5883 5884 5884 5884 5885 5885 5885 5885 5885 5884 5882 5881 5881 5882 5885 5887 5888 5889 5889 5890 5890 5890 5890
5874 5873 5872 5871 5871 5872 5873 5874 5875 5876 5876 5877 5878 5879 5880 5881 5881 5882 5883 5883 5883 5883 5884 5884 5884 5884 5885 5884 5884 5883 5880 5878 5878 5880 5883 5886 5887 5888 5888 5889 5889 5889 5889
5875 5874 5873 5873 5873 5873 5874 5874 5875 5875 5876 5877 5878 5879 5880 5881 5881 5882 5883 5883 5883 5883 5884 5884 5884 5884 5884 5884 5884 5882 5880 5879 5879 5881 5883 5885 5887 5887 5887 5887 5888 5888 5888
5876 5875 5874 5874 5874 5874 5874 5874 5874 5875 5876 5877 5878 5879 5880 5881 5882 5882 5883 5883 5883 5883 5884 5884 5884 5884 5884 5884 5883 5883 5881 5881 5881 5882 5884 5885 5886 5887 5887 5886 5887 5887 5888
5877 5877 5876 5876 5875 5875 5874 5874 5874 5874 5876 5877 5878 5880 5880 5881 5882 5883 5883 5883 5883 5883 5883 5883 5883 5884 5883 5883 5883 5883 5882 5882 5883 5884 5885 5885 5886 5886 5886 5886 5886 5887 5887
5879 5878 5878 5877 5876 5876 5875 5874 5875 5875 5876 5878 5879 5880 5881 5881 5882 5883 5883 5883 5883 5883 5883 5883 5883 5883 5883 5883 5883 5883 5883 5883 5884 5884 5885 5885 5885 5885 5885 5885 5885 5885 5885
5880 5879 5879 5878 5878 5877 5876 5876 5876 5876 5877 5879 5880 5880 5881 5882 5882 5883 5883 5883 5883 5883 5883 5883 5883 5883 5883 5882 5883 5883 5883 5883 5883 5884 5884 5884 5884 5884 5884 5884 5884 5884 5884
5881 5880 5880 5879 5879 5878 5877 5877 5877 5878 5879 5879 5880 5881 5882 5882 5882 5883 5883 5883 5883 5883 5883 5883 5882 5882 5882 5882 5882 5883 5882 5883 5883 5883 5883 5883 5883 5883 5883 5883 5883 5883 5883
5882 5881 5881 5880 5880 5879 5879 5879 5879 5879 5880 5880 5881 5881 5882 5882 5882 5883 5883 5883 5883 5882 5882 5883 5882 5882 5882 5882 5882 5882 5882 5882 5882 5881 5882 5882 5882 5882 5881 5881 5881 5881 5881
5884 5883 5883 5882 5881 5881 5881 5880 5880 5881 5881 5881 5881 5881 5882 5882 5882 5882 5882 5882 5883 5882 5882 5883 5883 5882 5882 5882 5882 5882 5882 5881 5881 5881 5881 5881 5881 5880 5880 5880 5879 5879 5879
5885 5884 5884 5883 5883 5882 5882 5882 5882 5882 5882 5882 5882 5882 5881 5882 5882 5882 5882 5882 5882 5882 5882 5882 5882 5882 5882 5882 5882 5882 5881 5881 5880 5880 5880 5879 5879 5879 5878 5877 5877 5877 5876
5886 5886 5885 5884 5884 5884 5883 5883 5883 5883 5883 5883 5883 5882 5882 5882 5882 5882 5882 5882 5882 5882 5882 5882 5882 5882 5882 5881 5881 5881 5880 5880 5879 5879 5878 5878 5877 5877 5876 5875 5875 5874 5874
5887 5887 5886 5885 5885 5885 5884 5884 5884 5883 5883 5883 5883 5882 5882 5882 5881 5881 5881 5882 5881 5881 5881 5881 5881 5881 5880 5880 5880 5879 5879 5878 5878 5877 5876 5876 5875 5874 5874 5873 5872 5871 5871
5888 5887 5887 5886 5885 5885 5885 5885 5884 5884 5883 5883 5883 5883 5882 5882 5881 5881 5881 5881 5881 5881 5880 5880 5880 5880 5879 5879 5878 5878 5877 5876 5876 5875 5874 5874 5873 5872 5871 5870 5870 5869 5868
5889 5888 5887 5887 5886 5886 5885 5885 5884 5884 5884 5883 5883 5883 5882 5882 5881 5881 5880 5880 5880 5879 5879 5879 5879 5878 5878 5877 5876 5876 5875 5874 5874 5873 5872 5871 5870 5869 5869 5868 5867 5866 5865
5889 5888 5888 5887 5887 5886 5886 5885 5885 5884 5884 5883 5883 5882 5882 5881 5881 5880 5880 5879 5878 5878 5878 5877 5877 5877 5876 5876 5875 5874 5873 5872 5872 5871 5870 5869 5868 5867 5866 5865 5864 5863 5862
5889 5888 5888 5887 5887 5886 5886 5885 5885 5884 5884 5883 5883 5882 5882 5881 5880 5880 5879 5878 5877 5877 5876 5876 5875 5875 5874 5874 5873 5872 5871 5871 5869 5868 5868 5867 5865 5864 5863 5862 5861 5860 5859
5889 5889 5888 5887 5887 5886 5886 5885 5885 5884 5884 5883 5882 5882 5881 5880 5879 5878 5878 5877 5876 5876 5875 5874 5873 5873 5872 5871 5871 5870 5869 5868 5866 5866 5865 5864 5863 5861 5860 5859 5858 5857 5856
5889 5888 5888 5887 5886 5886 5885 5885 5884 5884 5883 5882 5881 5880 5880 5879 5878 5877 5876 5876 5875 5874 5873 5872 5871 5871 5870 5869 5868 5867 5866 5865 5864 5864 5863 5861 5860 5859 5857 5856 5855 5854 5853
5888 5888 5887 5886 5886 5885 5885 5884 5884 5883 5882 5881 5880 5879 5878 5877 5876 5875 5874 5874 5873 5871 5870 5870 5869 5868 5867 5867 5866 5865 5864 5863 5861 5861 5860 5859 5858 5856 5855 5853 5852 5851 5850
5887 5886 5886 5885 5885 5884 5883 5883 5882 5881 5880 5879 5878 5877 5876 5875 5874 5874 5872 5871 5870 5869 5868 5867 5866 5866 5865 5864 5863 5862 5861 5860 5859 5858 5857 5856 5855 5853 5852 5851 5849 5848 5848